Regional Weather Roundup
Issued by NWS Kansas City/Pleasant Hill, MO

Home | Current Version | Previous Version | Graphics & Text | Print | Product List | Glossary Off
Versions: 1 2 3 4 5 6 7 8 9 10 11 12 13 14 15 16 17 18 19 20 21 22 23 24 25 26 27 28 29 30 31 32 33 34 35 36 37 38 39 40 41 42 43 44 45 46 47 48 49 50

224
ASUS43 KEAX 210510
RWREAX

WEATHER ROUNDUP FOR EASTERN KANSAS AND NORTHWEST MISSOURI
NATIONAL WEATHER SERVICE KANSAS CITY/PLEASANT HILL MO
1200 AM CDT FRI JUL 21 2017

KSZ040-057-103>105-MOZ028-029-037-043-210600-
...KANSAS CITY METROPOLITAN AREA...

CITY           SKY/WX    TMP DP  RH WIND       PRES   REMARKS
K.C. INTL      CLEAR     82  74  76 S10       29.95S
K.C. DOWNTOWN  CLEAR     87  74  64 S10       29.93F HX  95
LEES SUMMIT    CLEAR     85  75  72 S14       29.97S HX  93
OLATHE - IXD   CLEAR     82  74  76 S9        29.97S
OLATHE - OJC   CLEAR     81  75  82 S9        29.97S
LAWRENCE       CLEAR     85  75  72 S10       29.94S HX  93

$$

MOZ001>008-011>017-020>025-030>033-038>040-044>046-053-054-210600-
...NORTHERN AND CENTRAL MISSOURI...

CITY           SKY/WX    TMP DP  RH WIND       PRES   REMARKS
ST. JOSEPH     CLEAR     81  77  88 S6        29.93R
MOSBY          CLEAR     82  73  74 SE3       29.95R
WARRENSBURG    PTCLDY    81  72  74 S6        29.96S
WHITEMAN AFB   CLEAR     78  78 100 SW8       29.96S
CLINTON        CLEAR     81  73  78 S5        29.99S
SEDALIA        NOT AVBL
WARSAW         NOT AVBL
CHILLICOTHE      N/A     84  78  82 S6        29.96R HX  95
KIRKSVILLE     CLOUDY    82  78  88 SW5       29.97R HX  91

$$

MOZ041-047>049-056>058-063>065-088>090-097-210600-
...EASTERN AND SOUTHERN MISSOURI...

CITY           SKY/WX    TMP DP  RH WIND       PRES   REMARKS
ST. LOUIS INTL CLEAR     89  72  56 SW7       29.98R HX  96
SPIRIT OF STL  CLEAR     80  76  87 CALM      29.96R
COLUMBIA       CLEAR     82  74  76 S3        29.98S
JEFFERSON CITY CLEAR     80  77  90 E3        29.96S
ROLLA          CLEAR     77  72  84 S9        30.01R
OSAGE BEACH    CLEAR     80  72  76 CALM      30.01R
SPRINGFIELD    CLEAR     79  72  79 S8        30.03F
BRANSON        CLEAR     81  72  74 CALM      30.07S
JOPLIN         CLEAR     82  74  76 S8        30.01S
WEST PLAINS    CLEAR     82  73  74 SW6       30.06S

$$

IAZ060-094-KSZ022-034>040-054-083-096-NEZ052-066-093-210600-
...KANSAS...SOUTHEAST NEBRASKA AND IOWA...

CITY           SKY/WX    TMP DP  RH WIND       PRES   REMARKS
TOPEKA         CLEAR     85  75  72 S9        29.94S HX  93
MANHATTAN      CLEAR     87  72  60 S12G21    29.91S HX  93
EMPORIA        CLEAR     83  72  69 S16       29.96S
CHANUTE        CLEAR     83  72  69 S8        29.98S
WICHITA        CLEAR     86  70  58 S14       29.95S HX  90
OMAHA          CLOUDY    87  77  72 SE12      29.89R HX  99
LINCOLN        CLEAR     82  71  69 S8        29.89S
FALLS CITY     CLEAR     85  73  67 S12       29.91R HX  91
LAMONI         PTCLDY    82  79  90 SE6       29.95R HX  92
DES MOINES     LGT RAIN  77  72  84 SE6       29.92R

$$





USA.gov is the U.S. government's official web portal to all federal, state and local government web resources and services.